STARLINK-1063, 44768

Orbit data source: Space-Track

STARLINK-1063, 44768 is a payload satellite owned by SpaceX/Seattle (US) in LEO that was launched on Mon, 11 Nov 2019 UTC via an FALCON 9 launch vehicle from the Air Force Eastern Test Range (AFETR). Payload-class satellites include a variety of spacecraft equipped with specific instruments for various scientific and technological missions. These include communications satellites like Starlink; space stations such as the ISS; scientific satellites like the Hubble; Earth observation satellites from companies like Planet Labs, Umbra, and HawkEye 360; GPS; miniature CubeSats for education and research; and military/defense satellites.

Loading next visibility...
Identifier
44768, 2019-074BH
Orbit
LEO
Last TLE update
13 hours ago
Origin
Manufacturer
SpaceX/Seattle
Mission
Operational Commercial Communications
Bus & Motor
STARLINK, Unknown motor
Mass
260 kg wet, ~248 kg dry
Launch date (UTC)
2019-11-11 (6 years ago)
Launch vehicle
FALCON 9
Launch site
Air Force Eastern Test Range (AFETR)
Object type
Payload
Rocket body
Debris
Shape & HBR
Box + 1 Pan, 8.86 m
Radar Cross Section
13.562 m², Large (>1 m²)

Expand to show TLE details & history

TLE from 13 hours ago
0 STARLINK-1063
1 44768U 19074BH  25181.70465685  .00001251  00000-0  10289-3 0  9990
2 44768  53.0555 277.8233 0001039 100.8649 259.2457 15.06389655310227
Epoch: 2025-06-30T16:54Z
TLE epoch observation values (Epoch: 2025-06-30T16:54:42.351Z)
Latitude
-0.00004°
Longitude
105.13617°
Altitude
548.257 km
Speed
7.589 km/s
True Right ascension
18h 31m 17s
True Declination
0° 00' 00"
Sunlit
Object was in full shadow at epoch
Visualization orbit readout
Latitude
51.76712°
Longitude
174.36715°
Altitude
552.804 km
Speed
7.592 km/s
Apparent Right ascension
02h 39m 55s
Apparent Declination
12° 30' 08"
Sunlit
Object is in daylight
Visualization observer readout
Local Sidereal Time
17:37:37
Azimuth
48.086° ENE
Elevation
-23.321°
Doppler factor
1
Orbital elements
Apogee altitude
548.233 km
Perigee altitude
546.794 km
Semi-major axis
6,925.651 km
Eccentricity
0.0001
Inclination
53.0555°
RAAN
277.8233°
Arg. of periapsis
100.8649°
True anomaly
Unknown
Mean anomaly
259.2457°
Eccentric anomaly
Unknown
Mean motion
3.76576 °/min
Orbital period
95.6 mins
BSTAR
0.00010289
Loading maneuver chart data...
Loading SW <> Apogee altitude chart data...

STARLINK-1063 Visibility forecast

Observer location: undefined°, undefined°

Span
Click to sort rows by Start time (UTC) header in descending order
Start Az.
Max El. time (UTC)
Max El. Az.
Max El.
End time (UTC)
End Az.
7 mins2025-07-01 08:59:53.854Z220.711° SW2025-07-01 09:03:53.854Z118.119° SE43.192°2025-07-01 09:06:53.854Z55.702° ENE
5 mins2025-07-01 10:41:53.854Z300.256° NW2025-07-01 10:43:53.854Z342.921° N21.91°2025-07-01 10:46:53.854Z30.535° NE
4 mins2025-07-01 14:03:53.854Z354.989° N2025-07-01 14:04:53.854Z13.413° NNE17.696°2025-07-01 14:07:53.854Z62.635° ENE
6 mins2025-07-01 15:42:53.854Z318.225° NNW2025-07-01 15:44:53.854Z356.965° N41.984°2025-07-01 15:48:53.854Z121.539° SE
|